Time,TemperatureF,DewpointF,PressureIn,WindDirection,WindDirectionDegrees,WindSpeedMPH,WindSpeedGustMPH,Humidity,HourlyPrecipIn,Conditions,Clouds,dailyrainin,SoftwareType,DateUTC
2013-10-17 00:00:00,61.0,58.0,-100.00,WSW,245,3.0,6.0,89,0.00,,,-99.99,,2013-10-17 04:00:00,
2013-10-17 00:43:00,61.0,58.0,-100.00,WSW,245,3.0,6.0,89,0.00,,,-99.99,,2013-10-17 04:43:00,
2013-10-17 00:54:00,61.0,58.0,-100.00,WSW,245,3.0,6.0,89,0.00,,,-99.99,,2013-10-17 04:54:00,
2013-10-17 01:00:00,61.0,58.0,-100.00,South,190,4.0,7.0,90,0.00,,,-99.99,,2013-10-17 05:00:00,
2013-10-17 01:42:00,61.0,58.0,-100.00,South,190,4.0,7.0,90,0.00,,,-99.99,,2013-10-17 05:42:00,
2013-10-17 01:52:00,61.0,58.0,-100.00,South,190,4.0,7.0,90,0.00,,,-99.99,,2013-10-17 05:52:00,
2013-10-17 02:00:00,61.0,58.0,-100.00,WSW,245,4.0,7.0,90,0.00,,,-99.99,,2013-10-17 06:00:00,
2013-10-17 02:42:00,61.0,58.0,-100.00,WSW,245,4.0,7.0,90,0.00,,,-99.99,,2013-10-17 06:42:00,
2013-10-17 02:52:00,61.0,58.0,-100.00,WSW,245,4.0,7.0,90,0.00,,,-99.99,,2013-10-17 06:52:00,
2013-10-17 03:00:00,60.0,58.0,-100.00,West,261,3.0,7.0,93,0.00,,,-99.99,,2013-10-17 07:00:00,
2013-10-17 03:43:00,60.0,58.0,-100.00,West,261,3.0,7.0,93,0.00,,,-99.99,,2013-10-17 07:43:00,
2013-10-17 03:52:00,60.0,58.0,-100.00,West,261,3.0,7.0,93,0.00,,,-99.99,,2013-10-17 07:52:00,
2013-10-17 05:00:00,60.0,58.0,-100.00,West,261,3.0,8.0,93,0.00,,,-99.99,,2013-10-17 09:00:00,
2013-10-17 05:43:00,60.0,58.0,-100.00,West,261,3.0,8.0,93,0.00,,,-99.99,,2013-10-17 09:43:00,
2013-10-17 05:53:00,60.0,58.0,-100.00,West,261,3.0,8.0,93,0.00,,,-99.99,,2013-10-17 09:53:00,
2013-10-17 06:00:00,60.0,58.0,-100.00,SSW,206,5.0,8.0,93,0.00,,,-99.99,,2013-10-17 10:00:00,
2013-10-17 06:42:00,60.0,58.0,-100.00,SSW,206,5.0,8.0,93,0.00,,,-99.99,,2013-10-17 10:42:00,
2013-10-17 06:53:00,60.0,58.0,-100.00,SSW,206,5.0,8.0,93,0.00,,,-99.99,,2013-10-17 10:53:00,
2013-10-17 07:00:00,61.0,58.0,-100.00,SW,224,6.0,10.0,92,0.00,,,-99.99,,2013-10-17 11:00:00,
2013-10-17 07:42:00,61.0,58.0,-100.00,SW,224,6.0,10.0,92,0.00,,,-99.99,,2013-10-17 11:42:00,
2013-10-17 07:52:00,61.0,58.0,-100.00,SW,224,6.0,10.0,92,0.00,,,-99.99,,2013-10-17 11:52:00,
2013-10-17 08:00:00,61.0,59.0,-100.00,SW,216,3.0,9.0,92,0.00,,,-99.99,,2013-10-17 12:00:00,
2013-10-17 08:42:00,61.0,59.0,-100.00,SW,216,3.0,9.0,92,0.00,,,-99.99,,2013-10-17 12:42:00,
2013-10-17 08:52:00,61.0,59.0,-100.00,SW,216,3.0,9.0,92,0.00,,,-99.99,,2013-10-17 12:52:00,
2013-10-17 09:00:00,62.0,60.0,-100.00,WSW,239,5.0,9.0,91,0.00,,,-99.99,,2013-10-17 13:00:00,
2013-10-17 09:42:00,62.0,60.0,-100.00,WSW,239,5.0,9.0,91,0.00,,,-99.99,,2013-10-17 13:42:00,
2013-10-17 09:52:00,62.0,60.0,-100.00,WSW,239,5.0,9.0,91,0.00,,,-99.99,,2013-10-17 13:52:00,
2013-10-17 10:00:00,64.0,60.0,-100.00,SW,228,4.0,-999.0,88,-99.99,,,-99.99,,2013-10-17 14:00:00,
2013-10-17 10:42:00,64.0,60.0,-100.00,SW,228,4.0,-999.0,88,-99.99,,,-99.99,,2013-10-17 14:42:00,
2013-10-17 10:52:00,64.0,60.0,-100.00,SW,228,4.0,-999.0,88,-99.99,,,-99.99,,2013-10-17 14:52:00,
2013-10-17 11:00:00,66.0,59.0,-100.00,West,265,6.0,15.0,79,0.00,,,-99.99,,2013-10-17 15:00:00,
2013-10-17 11:43:00,66.0,59.0,-100.00,West,265,6.0,15.0,79,0.00,,,-99.99,,2013-10-17 15:43:00,
2013-10-17 11:54:00,66.0,59.0,-100.00,West,265,6.0,15.0,79,0.00,,,-99.99,,2013-10-17 15:54:00,
2013-10-17 12:00:00,68.0,60.0,-100.00,WNW,292,1.0,9.0,76,0.00,,,-99.99,,2013-10-17 16:00:00,
2013-10-17 12:42:00,68.0,60.0,-100.00,WNW,292,1.0,9.0,76,0.00,,,-99.99,,2013-10-17 16:42:00,
2013-10-17 12:54:00,68.0,60.0,-100.00,WNW,292,1.0,9.0,76,0.00,,,-99.99,,2013-10-17 16:54:00,
2013-10-17 13:00:00,70.0,60.0,-100.00,WNW,292,3.0,10.0,69,0.00,,,-99.99,,2013-10-17 17:00:00,
2013-10-17 13:42:00,70.0,60.0,-100.00,WNW,292,3.0,10.0,69,0.00,,,-99.99,,2013-10-17 17:42:00,
2013-10-17 13:53:00,70.0,60.0,-100.00,WNW,292,3.0,10.0,69,0.00,,,-99.99,,2013-10-17 17:53:00,
2013-10-17 14:00:00,72.0,60.0,-100.00,WNW,284,3.0,8.0,65,0.00,,,-99.99,,2013-10-17 18:00:00,
2013-10-17 14:42:00,72.0,60.0,-100.00,WNW,284,3.0,8.0,65,0.00,,,-99.99,,2013-10-17 18:42:00,
2013-10-17 14:52:00,72.0,60.0,-100.00,WNW,284,3.0,8.0,65,0.00,,,-99.99,,2013-10-17 18:52:00,
2013-10-17 15:00:00,67.0,61.0,-100.00,SE,142,10.0,12.0,81,0.00,,,-99.99,,2013-10-17 19:00:00,
2013-10-17 15:42:00,67.0,61.0,-100.00,SE,142,10.0,12.0,81,0.00,,,-99.99,,2013-10-17 19:42:00,
2013-10-17 15:53:00,67.0,61.0,-100.00,SE,142,10.0,12.0,81,0.00,,,-99.99,,2013-10-17 19:53:00,
2013-10-17 16:00:00,66.0,61.0,-100.00,SSE,165,4.0,13.0,82,0.00,,,-99.99,,2013-10-17 20:00:00,
2013-10-17 16:42:00,66.0,61.0,-100.00,SSE,165,4.0,13.0,82,0.00,,,-99.99,,2013-10-17 20:42:00,
2013-10-17 16:52:00,66.0,61.0,-100.00,SSE,165,4.0,13.0,82,0.00,,,-99.99,,2013-10-17 20:52:00,
2013-10-17 17:00:00,65.0,61.0,-100.00,South,178,6.0,11.0,84,0.00,,,-99.99,,2013-10-17 21:00:00,
2013-10-17 17:44:00,65.0,61.0,-100.00,South,178,6.0,11.0,84,0.00,,,-99.99,,2013-10-17 21:44:00,
2013-10-17 17:54:00,65.0,61.0,-100.00,South,178,6.0,11.0,84,0.00,,,-99.99,,2013-10-17 21:54:00,
2013-10-17 18:00:00,64.0,61.0,-100.00,South,181,4.0,13.0,90,0.00,,,-99.99,,2013-10-17 22:00:00,
2013-10-17 18:43:00,64.0,61.0,-100.00,South,181,4.0,13.0,90,0.00,,,-99.99,,2013-10-17 22:43:00,
2013-10-17 18:53:00,64.0,61.0,-100.00,South,181,4.0,13.0,90,0.00,,,-99.99,,2013-10-17 22:53:00,
2013-10-17 20:00:00,64.0,61.0,-100.00,South,174,5.0,11.0,90,0.00,,,-99.99,,2013-10-18 00:00:00,
2013-10-17 20:42:00,64.0,61.0,-100.00,South,174,5.0,11.0,90,0.00,,,-99.99,,2013-10-18 00:42:00,
2013-10-17 20:53:00,64.0,61.0,-100.00,South,174,5.0,11.0,90,0.00,,,-99.99,,2013-10-18 00:53:00,
2013-10-17 21:00:00,65.0,61.0,-100.00,SSW,200,9.0,13.0,86,0.00,,,-99.99,,2013-10-18 01:00:00,
2013-10-17 21:42:00,65.0,61.0,-100.00,SSW,200,9.0,13.0,86,0.00,,,-99.99,,2013-10-18 01:42:00,
2013-10-17 21:53:00,65.0,61.0,-100.00,SSW,200,9.0,13.0,86,0.00,,,-99.99,,2013-10-18 01:53:00,
2013-10-17 22:00:00,65.0,60.0,-100.00,SW,218,3.0,16.0,86,0.00,,,-99.99,,2013-10-18 02:00:00,
2013-10-17 22:42:00,65.0,60.0,-100.00,SW,218,3.0,16.0,86,0.00,,,-99.99,,2013-10-18 02:42:00,
2013-10-17 22:52:00,65.0,60.0,-100.00,SW,218,3.0,16.0,86,0.00,,,-99.99,,2013-10-18 02:52:00,
2013-10-17 23:00:00,65.0,60.0,-100.00,South,186,9.0,12.0,84,0.00,,,-99.99,,2013-10-18 03:00:00,
2013-10-17 23:44:00,65.0,60.0,-100.00,South,186,9.0,12.0,84,0.00,,,-99.99,,2013-10-18 03:44:00,
2013-10-17 23:55:00,65.0,60.0,-100.00,South,186,9.0,12.0,84,0.00,,,-99.99,,2013-10-18 03:55:00,